Flag for U.S.A. Weather past 2 weeks in Paramus, New Jersey, U.S.A.

Now
78 °F

Partly sunny.


Feels Like: 79 °F
Forecast: 66 / 81 °F
Wind: 16 mph from Northwest

Location: Teterboro Airport

Current Time: Jul 28, 2014 at 7:33:41 PM

Latest Report: Jul 28, 2014 at 6:51 PM


Visibility: 10 mi

Pressure: 29.58 "Hg

Humidity: 50%

Dew point: 58 °F

Location of ParamusLocation

Historic Weather in Paramus — Graph

°F

Paramus temperature yesterday

Maximum temperature yesterday: 90 °F (at 3:51 PM)
Minimum temperature yesterday: 72 °F (at 3:51 AM)
Average temperature yesterday: 81 °F

Past Weeks' High & Low Weather Summary

 TemperatureHumidityPressure
High96 °F (Jul 23, 4:51 PM)89% (Jul 14, 4:00 AM)30.24 "Hg (Jul 14, 4:00 AM)
Low64 °F (Jul 18, 5:51 AM)28% (Jul 18, 3:51 PM)29.50 "Hg (Jul 28, 1:51 PM)
Average77 °F61%29.94 "Hg
* Reported Jul 13 5:51 PM — Jul 28 5:51 PM, Paramus, Weather by CustomWeather, © 2014

Note: Actual official high and low records may vary slightly from our data, if they occured in-between our weather recording intervals... More about our weather records

Advertising

Paramus weather history for previous 24 hours

 ConditionsComfort  
Time TempWeatherWind HumidityBarometerVisibility
5:51 PM
Jul 28
84 °FSunny.16 mph41%29.53 "Hg10 mi
4:51 PM85 °FPassing clouds.18 mph40%29.52 "Hg10 mi
3:51 PM86 °FScattered clouds.15 mph43%29.51 "Hg10 mi
2:51 PM86 °FBroken clouds.14 mph42%29.51 "Hg10 mi
1:51 PM84 °FSunny.14 mph48%29.50 "Hg10 mi
12:51 PM82 °FBroken clouds.12 mph53%29.51 "Hg10 mi
11:51 AM81 °FScattered clouds.13 mph58%29.53 "Hg10 mi
10:51 AM77 °FOvercast.12 mph69%29.54 "Hg10 mi
9:51 AM75 °FOvercast.9 mph74%29.54 "Hg10 mi
8:51 AM76 °FScattered clouds.9 mph74%29.54 "Hg10 mi
7:51 AM74 °FCloudy.6 mph79%29.54 "Hg10 mi
6:51 AM73 °FPartly sunny.8 mph79%29.54 "Hg10 mi
5:51 AM72 °FClear.3 mph81%29.54 "Hg10 mi
4:51 AM72 °FPassing clouds.3 mph84%29.53 "Hg10 mi
3:51 AM74 °FPartly cloudy.12 mph74%29.55 "Hg10 mi
2:51 AM77 °FThunderstorms. Passing clouds.3 mph85%29.54 "Hg10 mi
1:51 AM76 °FThunderstorms. Overcast.5 mph85%29.59 "Hg7 mi
12:51 AM79 °FThunderstorms. Overcast.9 mph82%29.63 "Hg10 mi
11:51 PM
Jul 27
81 °FLight rain. Passing clouds.No wind74%29.63 "Hg10 mi
10:51 PM83 °FClear.6 mph65%29.66 "Hg10 mi
9:51 PM84 °FClear.7 mph53%29.66 "Hg10 mi
8:51 PM84 °FSunny.3 mph51%29.65 "Hg10 mi
7:51 PM86 °FSunny.5 mph46%29.65 "Hg10 mi
Weather by CustomWeather, © 2014

See weather overviewHow to use our weather pages